[[{"header":{"parameterUnit":"m.s-1","parameterCategory":1,"la1":30.2991,"la2":30.254,"lo1":-89.0895,"lo2":-89.0444,"dy":0.0017,"dx":0.0017,"nx":28,"ny":28,"refTime":"2024-05-04T03:00:00:Z","depth":0,"parameterNumber":2,"parameterNumberName":"U-component_of_WINDS"},"data":[0,0,0,0,0,0,0,0,0,0,0,0,0,0,0,0,0,0,0,0,0,0,0,0,0,0,0,0,0,0,0,0,0,0,0,0,0,0,0,0,0,0,0,0,0,0,0,0,0,0,0,0,0,0,0,0,0,0,-1.3671,-1.367,0,-1.3568,-1.3567,-1.3566,-1.347,-1.3469,-1.3468,-1.3467,-1.3356,-1.3354,-1.3352,0,0,0,0,0,0,0,0,0,0,0,0,0,-1.3779,-1.3777,-1.3671,-1.367,-1.3669,-1.3569,-1.3567,-1.3566,-1.347,-1.3469,-1.3468,-1.3466,-1.3357,-1.3354,-1.3352,0,0,0,0,0,0,0,0,0,0,0,0,0,-1.371,-1.3777,-1.3671,-1.3609,-1.3602,-1.3569,-1.3567,-1.3565,-1.3471,-1.3469,-1.3467,-1.3466,-1.3357,-1.3355,-1.3352,-1.337,0,0,-1.3343,-1.3342,0,0,0,0,0,0,0,0,-1.3714,-1.3706,-1.3619,-1.3613,-1.3606,-1.353,-1.3564,-1.35,-1.3471,-1.3521,-1.3467,-1.3465,-1.3415,-1.3407,-1.3392,-1.3365,-1.336,-1.3343,-1.3341,-1.334,-1.3339,0,0,0,0,0,0,0,-1.3719,-1.371,-1.363,-1.3618,-1.361,-1.3584,-1.3573,-1.3552,-1.3479,-1.3516,-1.3509,-1.3498,-1.3411,-1.3395,-1.3389,-1.3358,-1.3343,-1.3341,-1.3339,-1.3338,-1.3339,-1.334,0,0,0,0,0,0,-1.3734,-1.3714,-1.3633,-1.3627,-1.3657,-1.3584,-1.3571,-1.3556,-1.3479,-1.3465,-1.35,-1.3494,-1.34,-1.3392,-1.3384,-1.3399,-1.334,-1.3338,-1.3336,-1.3337,-1.3339,-1.3341,0,0,0,0,0,0,-1.3736,-1.3727,-1.3638,-1.3669,-1.3655,-1.3584,-1.3569,-1.3555,-1.3539,-1.3467,-1.3453,-1.3497,-1.3399,-1.3388,-1.3374,-1.3394,-1.3336,-1.3334,-1.3335,-1.3338,-1.334,-1.343,0,0,0,0,0,0,-1.374,-1.3729,-1.3737,-1.367,-1.3654,-1.3631,-1.357,-1.3555,-1.3535,-1.3527,-1.346,-1.3448,-1.3397,-1.3379,-1.3371,-1.3389,-1.3332,-1.3333,-1.3336,-1.3339,-1.3424,-1.3435,-1.3444,0,0,0,0,0,-1.3744,-1.3765,-1.3737,-1.3728,-1.3662,-1.3633,-1.3624,-1.3566,-1.3537,-1.3543,-1.3496,-1.345,-1.3393,-1.3378,-1.3369,-1.3386,-1.3331,-1.3335,-1.3339,-1.342,-1.3433,-1.3444,0,0,0,0,0,0,-1.3834,-1.3755,-1.3724,-1.3724,-1.3686,-1.3617,-1.3622,-1.3581,-1.3549,-1.3543,-1.3471,-1.3457,-1.345,-1.3416,-1.3401,-1.3398,-1.3356,-1.3358,-1.3421,-1.3432,-1.3442,-1.3449,-1.3329,0,0,0,0,0,-1.3854,-1.3839,-1.377,-1.3776,-1.3759,-1.3695,-1.3679,-1.3639,-1.3596,-1.3578,-1.3531,-1.3489,-1.3462,-1.3445,-1.3416,-1.3419,-1.3402,-1.3426,-1.3436,-1.3444,-1.3447,-1.3444,-1.3453,-1.3353,-1.3353,-1.3353,0,0,-1.3895,-1.385,-1.3844,-1.3793,-1.3759,-1.3743,-1.3682,-1.3667,-1.3653,-1.3575,-1.3559,-1.3523,-1.3472,-1.3467,-1.3462,-1.3438,-1.3471,-1.3449,-1.3456,-1.3454,-1.3449,-1.3459,-1.3467,-1.3356,-1.3355,-1.3355,0,0,-1.3961,-1.3926,-1.3927,-1.3895,-1.3844,-1.3801,-1.3802,-1.3739,-1.3712,-1.3695,-1.3636,-1.3618,-1.3573,-1.3539,-1.3515,-1.3568,-1.3523,-1.3561,-1.361,-1.3609,-1.3617,-1.3623,-1.364,-1.3648,-1.3563,-1.3563,-1.3564,0,-1.4017,-1.3992,-1.3933,-1.3922,-1.39,-1.3831,-1.3831,-1.3801,-1.3744,-1.3729,-1.3705,-1.3646,-1.3607,-1.3591,-1.3605,-1.3588,-1.3585,-1.3567,-1.3621,-1.3627,-1.3632,-1.3647,-1.3654,-1.3568,-1.3568,-1.3567,-1.3567,0,-1.4063,-1.4047,-1.4053,-1.4001,-1.398,-1.3975,-1.3913,-1.3899,-1.386,-1.3819,-1.3802,-1.3752,-1.3711,-1.3705,-1.3666,-1.3684,-1.3671,-1.3635,-1.359,-1.3647,-1.3661,-1.3666,-1.3575,-1.3573,-1.3572,-1.3571,0,0,-1.4182,-1.4098,-1.4101,-1.4076,-1.4015,-1.4,-1.3991,-1.3953,-1.3941,-1.3904,-1.3892,-1.3856,-1.3822,-1.3796,-1.3752,-1.3751,-1.3794,-1.3714,-1.3712,-1.373,-1.3809,-1.3836,-1.3844,-1.3765,-1.3766,-1.3766,-1.3813,0,-1.4236,-1.4217,-1.4164,-1.416,-1.4143,-1.4077,-1.4068,-1.4029,-1.3991,-1.3969,-1.3925,-1.39,-1.3858,-1.3841,-1.3837,-1.379,-1.3809,-1.3786,-1.3751,-1.3751,-1.3765,-1.3851,-1.3879,-1.3925,-1.3818,-1.3818,-1.3819,0,-1.4297,-1.4265,-1.4261,-1.4201,-1.4191,-1.4185,-1.4145,-1.4126,-1.408,-1.4051,-1.4023,-1.3975,-1.3959,-1.3919,-1.3895,-1.388,-1.3863,-1.3837,-1.3838,-1.3831,-1.3788,-1.3845,-1.3939,-1.3945,-1.3827,-1.3826,-1.3826,0,-1.4382,-1.4338,-1.433,-1.4311,-1.4241,-1.4237,-1.4208,-1.416,-1.414,-1.4105,-1.4091,-1.4054,-1.4033,-1.4005,-1.3947,-1.3924,-1.3929,-1.3884,-1.3903,-1.3904,-1.3905,-1.3906,-1.3996,-1.3897,-1.3897,-1.3897,-1.3897,0,-1.4448,-1.4447,-1.4367,-1.4362,-1.4358,-1.4296,-1.4294,-1.4258,-1.4216,-1.42,-1.4141,-1.4127,-1.4053,-1.403,-1.3985,-1.3971,-1.3962,-1.3937,-1.3925,-1.3942,-1.3945,-1.3928,-1.3923,-1.3899,-1.3898,-1.3898,-1.3898,0,-1.4542,-1.4489,-1.4474,-1.441,-1.4394,-1.4394,-1.4337,-1.4329,-1.4287,-1.4268,-1.426,-1.4194,-1.4164,-1.4104,-1.4057,-1.4026,-1.4022,-1.4001,-1.4039,-1.4031,-1.4052,-1.405,-1.4133,-1.414,-1.4039,-1.404,-1.4041,0,-1.4587,-1.4585,-1.4521,-1.4507,-1.448,-1.4459,-1.4439,-1.4378,-1.4359,-1.4306,-1.4303,-1.4269,-1.4238,-1.4193,-1.4139,-1.4102,-1.4079,-1.4111,-1.4073,-1.409,-1.4078,-1.4078,-1.4077,-1.4119,-1.412,-1.4122,-1.4123,0,-1.4671,-1.4645,-1.4619,-1.4585,-1.4564,-1.4533,-1.4499,-1.449,-1.442,-1.4402,-1.4372,-1.4348,-1.4301,-1.4267,-1.4223,-1.4189,-1.4143,-1.4135,-1.4137,-1.4154,-1.4175,-1.4162,-1.406,-1.4133,-1.4132,-1.4131,-1.4131,-1.413,-1.474,-1.4735,-1.4689,-1.4663,-1.4631,-1.4601,-1.4589,-1.4547,-1.4521,-1.4479,-1.4444,-1.4417,-1.4369,-1.4305,-1.4274,-1.425,-1.4228,-1.4232,-1.4232,-1.4233,-1.424,-1.418,-1.4242,-1.4241,-1.4241,-1.4241,-1.4241,0,-1.482,-1.4788,-1.4764,-1.4719,-1.4698,-1.466,-1.462,-1.4604,-1.4581,-1.4542,-1.4513,-1.4478,-1.4445,-1.4389,-1.435,-1.4342,-1.432,-1.4334,-1.4333,-1.4325,-1.4262,-1.4264,-1.4352,-1.4352,-1.4352,-1.4352,-1.4352,-1.4352,-1.4859,-1.4848,-1.4817,-1.4789,-1.4756,-1.473,-1.4711,-1.4681,-1.465,-1.4614,-1.4587,-1.4551,-1.4504,-1.4462,-1.4429,-1.4413,-1.4401,-1.4421,-1.4398,-1.434,-1.433,-1.432,-1.4321,-1.4419,-1.442,-1.4463,-1.4463,-1.4464]},{"header":{"parameterUnit":"m.s-1","parameterCategory":1,"la1":30.2991,"la2":30.254,"lo1":-89.0895,"lo2":-89.0444,"dy":0.0017,"dx":0.0017,"nx":28,"ny":28,"refTime":"2024-05-04T03:00:00:Z","depth":0,"parameterNumber":3,"parameterNumberName":"V-component_of_WINDS"},"data":[0,0,0,0,0,0,0,0,0,0,0,0,0,0,0,0,0,0,0,0,0,0,0,0,0,0,0,0,0,0,0,0,0,0,0,0,0,0,0,0,0,0,0,0,0,0,0,0,0,0,0,0,0,0,0,0,0,0,1.4818,1.4818,0,1.4763,1.4762,1.4762,1.4781,1.4782,1.4783,1.4784,1.472,1.4717,1.4714,0,0,0,0,0,0,0,0,0,0,0,0,0,1.4935,1.4933,1.4818,1.4818,1.4817,1.4763,1.4762,1.4761,1.478,1.4782,1.4783,1.4785,1.4721,1.4717,1.4714,0,0,0,0,0,0,0,0,0,0,0,0,0,1.4882,1.4932,1.4818,1.482,1.482,1.4763,1.4762,1.4761,1.478,1.4782,1.4784,1.4785,1.4722,1.4718,1.4713,1.465,0,0,1.47,1.4698,0,0,0,0,0,0,0,0,1.4885,1.4878,1.482,1.482,1.4819,1.4781,1.478,1.4723,1.478,1.4795,1.4784,1.4786,1.4738,1.4733,1.4718,1.4647,1.4644,1.47,1.4697,1.4695,1.4694,0,0,0,0,0,0,0,1.4889,1.488,1.4796,1.482,1.4819,1.4822,1.4816,1.4769,1.4756,1.4794,1.4795,1.4789,1.4738,1.4722,1.4716,1.4643,1.47,1.4696,1.4694,1.4692,1.4517,1.4516,0,0,0,0,0,0,1.4894,1.4883,1.4798,1.4794,1.4858,1.4818,1.4812,1.4791,1.4757,1.4754,1.4787,1.479,1.4728,1.4721,1.4714,1.4637,1.4695,1.4691,1.4689,1.452,1.4517,1.4515,0,0,0,0,0,0,1.4896,1.4886,1.48,1.4839,1.4829,1.4814,1.479,1.4789,1.4773,1.4752,1.4749,1.4773,1.473,1.472,1.4666,1.4635,1.469,1.4686,1.4522,1.4519,1.4516,1.4482,0,0,0,0,0,0,1.4899,1.4887,1.4863,1.4839,1.4826,1.4754,1.4789,1.4787,1.4766,1.4769,1.4738,1.4735,1.473,1.4673,1.4662,1.463,1.4682,1.4525,1.4521,1.4517,1.4486,1.4479,1.4472,0,0,0,0,0,1.4903,1.4854,1.4862,1.4851,1.4797,1.4753,1.4745,1.4743,1.4764,1.4739,1.4726,1.4736,1.4641,1.4667,1.4655,1.4621,1.4526,1.4522,1.4517,1.4489,1.448,1.4472,0,0,0,0,0,0,1.4871,1.4851,1.4859,1.4801,1.4779,1.4756,1.4725,1.4733,1.4703,1.4706,1.4703,1.4696,1.464,1.4626,1.4655,1.4559,1.4587,1.4579,1.4569,1.456,1.4554,1.4557,1.4679,0,0,0,0,0,1.4859,1.4826,1.4809,1.4759,1.4748,1.4739,1.4719,1.472,1.4695,1.4685,1.4668,1.4643,1.4607,1.4584,1.455,1.4486,1.4478,1.4457,1.445,1.4444,1.4437,1.4402,1.4392,1.45,1.45,1.45,0,0,1.4829,1.4814,1.4793,1.4752,1.4735,1.47,1.473,1.4691,1.4664,1.4678,1.4627,1.4614,1.4585,1.4526,1.4499,1.4512,1.4406,1.4438,1.4434,1.443,1.4396,1.4386,1.4377,1.4497,1.4497,1.4498,0,0,1.4758,1.4744,1.4701,1.4685,1.466,1.4655,1.4645,1.4622,1.4614,1.4564,1.4574,1.4542,1.4481,1.446,1.4441,1.4367,1.4374,1.4356,1.4318,1.4284,1.4275,1.4268,1.424,1.423,1.4349,1.4349,1.4349,0,1.4724,1.4673,1.4677,1.4638,1.462,1.4636,1.4591,1.4574,1.4538,1.4524,1.4541,1.4466,1.4448,1.4384,1.4367,1.4352,1.4339,1.4357,1.4277,1.4269,1.4262,1.4235,1.4225,1.4347,1.4347,1.4348,1.4348,0,1.4633,1.4598,1.4566,1.4534,1.4513,1.4471,1.4467,1.4444,1.4448,1.4441,1.4389,1.4369,1.4331,1.4317,1.4319,1.4254,1.4263,1.4278,1.4305,1.4249,1.4224,1.4214,1.4344,1.4345,1.4346,1.4346,0,0,1.4535,1.451,1.4498,1.4484,1.446,1.4432,1.4392,1.4359,1.4338,1.4315,1.4279,1.4229,1.4244,1.4223,1.4224,1.4194,1.4136,1.4213,1.4213,1.4198,1.4062,1.4049,1.4037,1.4142,1.4141,1.4139,1.4064,0,1.4461,1.4392,1.4396,1.433,1.4297,1.4314,1.4278,1.4259,1.4252,1.4222,1.4214,1.4178,1.4201,1.4189,1.4161,1.4149,1.4108,1.4155,1.4107,1.4105,1.4111,1.4024,1.4009,1.3939,1.4054,1.4052,1.4051,0,1.4363,1.4339,1.4271,1.4254,1.424,1.4209,1.4179,1.4152,1.413,1.4127,1.4106,1.4112,1.407,1.4102,1.4043,1.4075,1.4056,1.4048,1.4045,1.4038,1.4072,1.4012,1.3917,1.3905,1.4036,1.4037,1.4038,0,1.4297,1.4248,1.4201,1.4189,1.4168,1.4146,1.4135,1.4116,1.4097,1.4071,1.4058,1.4027,1.4009,1.3984,1.3981,1.4005,1.3921,1.3953,1.3916,1.3916,1.3894,1.3895,1.3792,1.3887,1.3887,1.3887,1.3887,0,1.4211,1.4168,1.4172,1.4142,1.4095,1.41,1.4053,1.4045,1.4028,1.3997,1.4009,1.3979,1.3979,1.3947,1.3945,1.3896,1.3888,1.3883,1.3883,1.3881,1.3881,1.3866,1.3869,1.3884,1.3885,1.3886,1.3886,0,1.4127,1.4128,1.4078,1.4064,1.406,1.4025,1.4012,1.3984,1.398,1.394,1.3931,1.3924,1.3888,1.3885,1.3842,1.3841,1.3781,1.3787,1.3789,1.3789,1.3751,1.3754,1.3632,1.3616,1.3724,1.3723,1.3722,0,1.4071,1.4039,1.4023,1.4005,1.3994,1.3963,1.3945,1.395,1.3929,1.3904,1.3879,1.3845,1.3818,1.3761,1.375,1.3718,1.3722,1.3682,1.3716,1.3716,1.3719,1.372,1.3716,1.3673,1.3672,1.3671,1.367,0,1.3971,1.3974,1.3947,1.3922,1.39,1.3879,1.386,1.3843,1.3846,1.3822,1.3788,1.3768,1.3727,1.3692,1.3662,1.365,1.3659,1.3661,1.365,1.3646,1.3647,1.3644,1.3768,1.3662,1.3663,1.3663,1.3664,1.3664,1.3897,1.387,1.3855,1.3826,1.3813,1.3796,1.3769,1.3764,1.3736,1.3705,1.371,1.3671,1.3652,1.3612,1.3598,1.3567,1.358,1.3565,1.3561,1.3556,1.3552,1.3656,1.3562,1.3562,1.3562,1.3563,1.3563,0,1.3796,1.3789,1.3762,1.3737,1.3714,1.373,1.371,1.3689,1.3656,1.3639,1.3614,1.3574,1.3543,1.3532,1.3501,1.3478,1.3482,1.3469,1.3469,1.3466,1.3543,1.3554,1.3467,1.3467,1.3467,1.3467,1.3467,1.3467,1.374,1.3695,1.3697,1.3646,1.3638,1.3603,1.359,1.3574,1.356,1.3517,1.3492,1.3487,1.3472,1.344,1.3412,1.3409,1.3396,1.3381,1.338,1.3451,1.3461,1.347,1.348,1.3379,1.3379,1.3306,1.3305,1.3305]}]]